STARLINK-36367, 67629

Orbit data source: Space-Track

STARLINK-36367, 67629 is a payload satellite owned by SpaceX/Seattle (US) in LEO that was launched on Fri, 30 Jan 2026 UTC via an FALCON 9 launch vehicle from the Air Force Eastern Test Range (AFETR). Payload-class satellites include a variety of spacecraft equipped with specific instruments for various scientific and technological missions. These include communications satellites like Starlink; space stations such as the ISS; scientific satellites like the Hubble; Earth observation satellites from companies like Planet Labs, Umbra, and HawkEye 360; GPS; miniature CubeSats for education and research; and military/defense satellites.

Loading next visibility...
Identifier
67629, 2026-020N
Orbit
LEO
Country
Flag of USUS
Related business
Manufacturer
SpaceX/Seattle
Mission
Operational spacecraft
Bus & Motor
STARLINK V2MO, Unknown motor
Mass
575 kg wet, ~530 kg dry
Launch date (UTC)
2026-01-30 (2 months ago)
Launch vehicle
FALCON 9
Launch site
Air Force Eastern Test Range (AFETR)
Object type
Payload
Rocket body
Debris
Shape & HBR
Unknown shape, 17.7 m
Radar Cross Section
RCS unknown

Expand to show TLE details & history
Last TLE update: 6 hours ago

TLE from 6 hours ago
0 STARLINK-36367
1 67629U 26020N   26104.82902471  .00004522  00000-0  17372-3 0  9992
2 67629  43.0011 295.4187 0000987 276.3450  83.7289 15.27584876 11640
Epoch: 2026-04-14T19:53Z
TLE epoch observation values (Epoch: 2026-04-14T19:53:47.734Z)
Latitude
-0.00006°
Longitude
153.97009°
Altitude
482.736 km
Speed
7.626 km/s
True Right ascension
19h 41m 40s
True Declination
0° 00' 00"
Sunlit
Object was in daylight at epoch
Visualization orbit readout
Latitude
Unknown
Longitude
Unknown
Altitude
Unknown
Speed
Unknown
Apparent Right ascension
Unknown
Apparent Declination
Unknown
Sunlit
N/A
Visualization observer readout
Local Sidereal Time
08:09:43
Azimuth
Unknown
Elevation
Unknown
Doppler factor
Unknown
Orbital elements
Apogee altitude
485.657 km
Perigee altitude
484.302 km
Semi-major axis
6,863.116 km
Eccentricity
0.0001
Inclination
43.0011°
RAAN
295.4187°
Arg. of periapsis
276.345°
True anomaly
83.74014°
Mean anomaly
83.7289°
Eccentric anomaly
83.73452°
Mean motion
3.81734 °/min
Orbital period
94.31 mins
BSTAR
0.00017372
Loading maneuver chart data...
Computing Atmospheric mass density...
Loading historical data...
Loading historical data...
Loading historical data...
Loading historical data...
Loading historical data...
Loading historical data...
Loading historical data...

Documentation

Showing up to 5 results
|